Location: Wildcat Hills Observatory
(41.6350°N, 103.6812°W)
Time: 17:27:52
(UTC-06:00)

Daily predictions for brighter satellites

Satellite Brightness Start Highest point End
(mag) Time Altitude Azimuth Time Altitude Azimuth Time Altitude Azimuth
Meteor 1-5 Rocket 4.4 19:49:33 10° SSW 19:54:56 79° W 20:00:31 10° N
Cosmos 2084 3.4 19:51:15 10° NW 19:55:20 90° ENE 19:59:38 10° SE
BREEZE-M DEB (TANK) 3.2 19:54:24 10° NNW 19:56:01 19° NNE 19:58:07 10° ENE
METEOR-M 4.3 19:52:17 10° SSE 19:57:38 86° WSW 20:03:01 10° NNW
Cosmos 1898 Rocket 3.7 19:54:13 10° NNW 19:59:26 55° ENE 20:04:34 10° SE
Cosmos 1346 Rocket 3.8 20:01:44 10° NNW 20:05:36 50° W 20:09:29 10° S
Cosmos 468 Rocket 4.0 20:01:57 10° S 20:06:56 56° ESE 20:11:58 10° NNE
Cosmos 220 Rocket 4.2 20:05:41 10° NNW 20:09:53 70° WSW 20:14:04 10° S
Cosmos 841 Rocket 4.5 20:06:24 10° SSE 20:10:37 25° E 20:14:50 10° NE
Meteor 1-29 3.7 20:08:29 10° N 20:11:55 60° WNW 20:15:21 10° SSW
Cosmos 1743 3.9 20:08:57 10° SE 20:12:07 24° E 20:15:18 10° NE
Cosmos 1697 Rocket 2.7 20:06:54 10° SSW 20:12:29 68° ESE 20:18:06 10° NNE
H-2A R/B 4.1 20:12:44 10° ENE 20:13:53 11° ENE 20:15:03 10° NE
Cosmos 1626 Rocket 3.5 20:10:36 10° N 20:15:01 83° E 20:19:21 10° S
CZ-4B DEB 2.8 20:12:36 10° SSE 20:15:53 89° WSW 20:19:11 10° NNW
Meteor 1-12 Rocket 4.4 20:12:59 10° S 20:18:45 89° W 20:24:40 10° N
Helios 1B rocket 3.7 20:15:27 10° N 20:19:24 46° WNW 20:23:19 10° SW
Cosmos 1455 Rocket 4.4 20:15:44 10° SSW 20:19:52 43° WNW 20:24:04 10° N
Cosmos 2173 Rocket 4.4 20:14:44 10° SSE 20:20:37 41° E 20:26:28 10° NNE
Cosmos 1814 Rocket 4.0 20:16:47 10° S 20:22:03 65° ESE 20:27:19 10° NNE
Cosmos 1066 Rocket 4.3 20:17:13 10° N 20:22:54 61° ENE 20:28:38 10° SSE
Cosmos 1939 Rocket 4.3 20:22:24 15° ESE 20:24:41 22° ENE 20:27:56 10° NNE
Lacrosse 5 2.0 20:20:22 10° NW 20:25:26 72° SW 20:30:13 11° SE
Cosmos 1602 Rocket 3.8 20:21:44 10° NNW 20:26:11 75° W 20:30:33 10° S
USA 186 1.4 20:24:42 10° SSE 20:27:36 63° ENE 20:30:19 10° N
BREEZE-M TANK 3.7 20:13:26 10° WNW 20:28:08 81° NNE 20:31:15 17° ESE
Cosmos 1605 Rocket 4.4 20:21:56 10° SSW 20:28:13 69° W 20:34:27 10° N
SL-16 R/B 3.4 20:24:50 10° SE 20:28:49 20° E 20:32:48 10° NE
CZ-4B DEB 4.5 20:27:44 10° SSE 20:31:21 81° ENE 20:35:00 10° N
BREEZE-M DEB (TANK) 4.2 20:29:46 10° NW 20:33:02 48° NNE 20:40:18 15° E
Iridium 4 Rocket 3.2 20:29:39 10° N 20:34:31 83° E 20:38:58 10° S
Cosmos 1980 Rocket 2.2 20:31:50 10° S 20:37:27 66° ESE 20:43:06 10° NNE
SPOT 5 4.3 20:36:37 17° E 20:38:22 20° ENE 20:41:46 10° NNE
Cosmos 2100 Rocket 4.0 20:34:38 10° S 20:40:49 65° E 20:46:58 10° NNE
ALOS 2.8 20:38:02 10° S 20:42:38 60° W 20:47:17 10° NNW
H-2A R/B 3.1 20:38:51 10° S 20:42:43 67° W 20:46:41 10° NNW
FENGYUN 3A 4.0 20:37:47 10° S 20:43:06 68° WSW 20:48:27 10° NNW
CZ-4 DEB 3.0 20:47:37 33° SE 20:48:37 47° ENE 20:51:40 10° N
Cosmos 1666 3.5 20:48:56 28° ESE 20:49:19 29° E 20:52:38 10° NNE
RESURS DK-1 3.0 20:45:51 10° NW 20:49:54 54° WSW 20:53:33 12° S
Tiangong 1 2.2 20:49:21 10° W 20:52:11 32° SSW 20:53:02 27° S
Cosmos 1842 4.0 20:50:02 10° NNE 20:53:33 31° ENE 20:54:09 30° E
OAO 2 Rocket 4.3 20:50:21 10° WSW 20:54:46 32° SSW 20:56:54 23° SSE
Envisat 3.3 20:52:52 24° SE 20:55:37 47° ENE 21:00:29 10° N
Cosmos 1937 Rocket 3.9 20:50:55 10° NNW 20:56:10 66° WSW 21:01:20 10° S
Cosmos 1606 Rocket 3.5 20:54:23 10° S 20:58:43 64° E 21:03:09 10° NNE
Cosmos 2263 Rocket 3.4 20:55:45 10° N 21:00:17 25° NE 21:02:03 21° E
Cosmos 2061 Rocket 3.9 20:54:15 10° S 21:00:34 84° E 21:06:50 10° N
Cosmos 1459 Rocket 3.9 20:55:06 10° S 21:01:09 88° E 21:07:19 10° N
Cosmos 2058 Rocket 3.5 20:59:24 29° SE 21:01:10 42° E 21:05:26 10° NNE
Cosmos 990 Rocket 4.1 20:56:40 10° NNW 21:01:56 79° WSW 21:05:51 18° SSE
Cosmos 1340 2.5 21:00:31 10° N 21:04:20 88° E 21:06:07 30° S
Cosmos 1725 Rocket 4.1 21:07:39 21° SSE 21:11:37 50° E 21:17:38 10° NNE
ERS-1 Rocket 2.9 21:09:01 23° SSE 21:12:10 87° ENE 21:17:12 10° NNW
Cosmos 2322 Rocket 2.3 21:07:36 10° S 21:12:58 50° ESE 21:18:24 10° NE
BREEZE-M DEB (TANK) 3.9 20:58:18 10° WSW 21:14:08 89° SSE 21:17:26 21° ENE
Cosmos 1726 Rocket 3.5 21:17:11 17° S 21:20:32 87° W 21:24:58 10° N
Cosmos 1763 Rocket 4.0 21:20:51 10° SSW 21:25:52 58° WNW 21:30:53 10° NNE
Meteor 2-9 Rocket 4.0 21:24:13 21° S 21:27:55 75° E 21:33:17 10° NNE
Cosmos 836 Rocket 4.4 21:23:35 10° SSW 21:28:52 89° WNW 21:34:13 10° NNE
Cosmos 2233 Rocket 4.3 21:30:38 41° ESE 21:31:33 44° E 21:37:25 10° NNE
H-2A R/B 3.6 21:35:07 19° NE 21:35:07 19° NE 21:37:59 10° NNE
Meteor 2-5 Rocket 4.4 21:34:12 10° N 21:39:40 38° ENE 21:39:48 38° ENE
Cosmos 405 Rocket 4.0 21:37:32 10° N 21:39:45 30° NNE 21:39:45 30° NNE
Meteor 1-15 Rocket 4.2 21:38:36 25° S 21:42:14 87° ESE 21:48:07 10° N
ASTEX 1 3.3 21:38:32 10° N 21:43:34 89° ESE 21:44:47 53° S
Cosmos 2228 2.9 21:45:12 83° N 21:45:12 83° N 21:49:21 10° N
Cosmos 1125 Rocket 3.5 21:42:33 10° NNW 21:47:47 76° WSW 21:48:48 57° S
H-2A R/B 2.1 21:49:17 69° WSW 21:49:18 69° WSW 21:53:29 10° NNW
Cosmos 540 Rocket 3.3 21:51:51 71° S 21:52:24 83° ESE 21:57:34 10° NNE
SPOT 1/Viking Rocket 3.6 21:53:57 61° ENE 21:53:57 61° ENE 21:59:01 10° N
Cosmos 332 Rocket 3.8 21:55:37 69° SW 21:56:11 83° WNW 22:01:08 10° NNE
Nimbus 7 Rocket 4.5 21:50:23 10° NNE 21:56:28 79° WNW 22:00:31 22° SSW
Cosmos 371 Rocket 4.2 21:59:31 38° NE 21:59:31 38° NE 22:02:34 10° NNE
ARGOS 3.1 22:01:56 67° ENE 22:01:56 67° ENE 22:07:10 10° N
Cosmos 2098 Rocket 4.4 21:55:31 10° SSW 22:02:01 56° W 22:07:17 10° N
USA 245 4.4 22:04:07 66° SSE 22:05:06 85° ENE 22:11:22 10° NNW
Lacrosse 5 4.5 22:06:32 10° WSW 22:07:33 11° WSW 22:08:34 10° SW
MetOp-B 4.2 22:07:02 64° SW 22:07:37 70° WSW 22:12:59 10° NNW
Cosmos 1844 Rocket 4.3 22:06:32 10° N 22:10:21 21° NE 22:10:21 21° NE
NOAA 11 4.1 22:11:34 81° NE 22:11:34 81° NE 22:16:54 10° NNW
SL-16 R/B 2.7 22:06:50 10° SW 22:12:24 58° WNW 22:18:01 10° NNE
Cosmos 372 Rocket 4.1 22:08:18 10° NNW 22:13:12 71° W 22:13:12 71° W
YAOGAN 6 4.5 22:17:21 30° NW 22:17:21 30° NW 22:19:34 10° NNW
SPOT 5 3.6 22:15:53 46° WSW 22:16:08 47° W 22:20:42 10° NNW
Cosmos 2360 Rocket 3.3 22:24:17 34° NE 22:24:17 34° NE 22:27:24 10° NNE
Terra 3.3 22:25:58 29° NNE 22:25:58 29° NNE 22:28:37 10° N
Cosmos 2346 Rocket 4.3 22:17:52 10° N 22:24:07 87° W 22:24:11 86° SW
BREEZE-M DEB (TANK) 3.9 22:13:17 10° WSW 22:25:27 87° NNW 22:25:59 75° NE
Cosmos 2263 Rocket 2.9 22:39:07 10° NW 22:43:45 47° W 22:43:45 47° W
Cosmos 2322 Rocket 4.2 22:52:42 10° WSW 22:57:17 25° NW 23:01:55 10° N
H-2A R/B 3.7 23:15:46 29° NW 23:15:46 29° NW 23:18:22 10° NNW
USA 215 3.7 23:27:13 59° NNW 23:27:13 59° NNW 23:32:30 10° NW
COSMOS 2428 4.4 23:36:27 27° NNE 23:36:27 27° NNE 23:38:56 10° NNE
Cosmos 2278 Rocket 3.8 23:35:56 10° NNW 23:38:51 29° N 23:38:51 29° N
